Flag for Brazil Weather past 2 weeks in Belo Horizonte, Minas Gerais, Brazil

Now
88 °F

Sunny.


Feels Like: 85 °F
Forecast: 68 / 90 °F
Wind: 14 mph from West

Location: Belo Horizonte Airport

Current Time: Sep 4, 2015 at 12:41:39 PM

Latest Report: Sep 4, 2015 at 12:00 PM


Visibility: 10 mi

Pressure: 30.04 "Hg (27.27 "Hg at 860m altitude)

Humidity: 27%

Dew point: 50 °F

Location of Belo HorizonteLocation

Historic Weather in Belo Horizonte — Graph

°F

Belo Horizonte temperature yesterday

Maximum temperature yesterday: 88 °F (at 3:00 PM)
Minimum temperature yesterday: 61 °F (at 6:00 AM)
Average temperature yesterday: 74 °F

Past Weeks' High & Low Weather Summary

 TemperatureHumidityPressure
High90 °F (Sep 1, 3:00 PM)100% (Aug 25, 1:00 AM)30.30 "Hg (Aug 25, 1:00 AM)
Low57 °F (Aug 24, 7:00 AM)21% (Sep 1, 3:00 PM)29.98 "Hg (Aug 23, 3:00 PM)
Average71 °F60%30.12 "Hg
* Reported Aug 20 11:00 AM — Sep 4 11:00 AM, Belo Horizonte, Weather by CustomWeather, © 2015

Note: Actual official high and low records may vary slightly from our data, if they occured in-between our weather recording intervals... More about our weather records

Advertising

Belo Horizonte weather history for previous 24 hours

 ConditionsComfort  
Time TempWeatherWind HumidityBarometerVisibility
11:00 AM
Fri, Sep 4
84 °FSunny.14 mph31%30.07 "Hg10 mi
10:00 AM79 °FSunny.9 mph42%30.09 "Hg10 mi
9:00 AM73 °FSunny.2 mph57%30.09 "Hg10 mi
8:00 AM68 °FSunny.3 mph73%30.09 "Hg10 mi
7:00 AM64 °FSunny.3 mph78%30.07 "Hg10 mi
6:00 AM63 °FClear.3 mph83%30.04 "Hg10 mi
5:00 AM63 °FClear.3 mph83%30.01 "Hg10 mi
4:00 AM64 °FClear.9 mph73%30.01 "Hg10 mi
3:00 AM64 °FClear.5 mph73%30.01 "Hg10 mi
2:00 AM66 °FClear.7 mph68%30.04 "Hg10 mi
1:00 AM68 °FClear.3 mph60%30.04 "Hg10 mi
12:00 AM70 °FClear.2 mph50%30.07 "Hg10 mi
11:00 PM
Thu, Sep 3
72 °FClear.3 mph50%30.07 "Hg10 mi
10:00 PM77 °FClear.8 mph36%30.07 "Hg10 mi
9:00 PM77 °FClear.7 mph36%30.07 "Hg10 mi
8:00 PM81 °FClear.8 mph34%30.07 "Hg10 mi
7:00 PM79 °FClear.8 mph37%30.04 "Hg10 mi
6:00 PM81 °FPassing clouds.7 mph34%30.01 "HgN/A
5:00 PM86 °FPassing clouds.10 mph27%30.01 "HgN/A
4:00 PM86 °FScattered clouds.9 mph29%30.01 "HgN/A
3:00 PM88 °FScattered clouds.6 mph29%30.01 "HgN/A
2:00 PM84 °FScattered clouds.9 mph35%30.04 "HgN/A
1:00 PM84 °FSunny.13 mph37%30.07 "Hg10 mi
12:00 PM81 °FSunny.7 mph42%30.09 "Hg10 mi
Weather by CustomWeather, © 2015

See weather overviewHow to use our weather pages